SL-6 R/B(2)

Last updated on Fri Sep 19 2025 00:02:14 GMT+0000 (Coordinated Universal Time)

1 20666U 90055D 25261.06089493 .00001699 00000+0 14218-3 0 9997 2 20666 62.7816 120.3956 0013349 229.0040 130.9905 15.02418799912246
UTC large
Height (km)
Speed (km/s)
/
Latitude / Longitude
Inclination (degrees)
Orbital Period (minutes)
Azimuth
Elevation
Range (km)
Doppler Factor

Next 0 passes for location: London (51.5072 / 0.1276)

Sorry there are no passes over London.